Location: Gipe Farm
(40.9466°N, 95.5370°W)
Time: 04:46:46
(UTC-05:00)

Daily predictions for brighter satellites

Satellite Brightness Start Highest point End
(mag) Time Altitude Azimuth Time Altitude Azimuth Time Altitude Azimuth
Terra 4.2 00:32:07 17° WNW 00:32:07 17° WNW 00:33:57 10° NW
SL-16 R/B 3.4 00:46:54 37° NNE 00:46:54 37° NNE 00:50:15 10° NNE
CZ-4C R/B 3.4 00:44:04 10° NW 00:49:47 51° W 00:49:47 51° W
Cosmos 2333 Rocket 4.1 01:03:17 21° WNW 01:04:19 22° NW 01:08:44 10° N
ATLAS CENTAUR R/B 4.4 01:08:06 12° NNE 01:08:06 12° NNE 01:08:29 10° NNE
Cosmos 2237 Rocket 3.9 01:08:11 26° NW 01:08:12 26° NW 01:12:59 10° N
Cosmos 2278 Rocket 4.3 01:07:48 10° NW 01:09:39 17° WNW 01:09:39 17° WNW
ATLAS 2AS CENTAUR R/B 3.1 01:20:13 73° NE 01:20:13 73° NE 01:27:28 10° NE
CZ-2C R/B 3.9 01:18:15 10° N 01:21:47 38° NNW 01:21:47 38° NNW
ATLAS 3B R/B 3.2 01:48:22 10° NW 01:53:17 51° NW 01:53:17 51° NW
Cosmos 2369 Rocket 3.3 02:04:30 10° NNW 02:08:01 40° NNW 02:08:01 40° NNW
USA 238 DEB 3.9 02:05:17 10° NW 02:11:15 66° NNW 02:11:15 66° NNW
USA 238 3.9 02:05:23 10° NW 02:11:23 67° NNW 02:11:23 67° NNW
USA 215 3.3 02:20:54 10° NE 02:26:58 76° NNE 02:26:58 76° NNE
Cosmos 1943 Rocket 2.9 02:23:23 10° NNW 02:27:54 50° NNE 02:27:54 50° NNE
SL-16 R/B 4.4 02:28:45 15° NW 02:29:29 15° NW 02:32:43 10° NNW
NOSS 3-2 (C) 4.3 02:36:30 10° NNW 02:43:56 62° NE 02:50:12 18° SE
ARIANE 5 R/B 4.5 02:45:33 10° NE 02:49:21 20° E 02:49:48 20° E
SL-16 R/B 3.8 02:51:39 22° ESE 02:54:48 36° ENE 03:00:20 10° N
Cosmos 2218 Rocket 4.2 02:50:18 10° N 02:55:34 63° NW 02:55:34 63° NW
ADEOS Rocket 4.4 02:52:59 10° NE 02:58:18 30° E 03:00:01 27° ESE
USA 267 3.8 02:53:04 10° ESE 02:59:24 56° NE 03:05:46 10° NW
Meteor 2-21 Rocket 4.4 02:53:15 10° N 02:59:16 76° ENE 02:59:16 76° ENE
Cosmos 2366 rocket 4.0 02:53:58 10° N 02:59:37 70° NW 02:59:37 70° NW
NOSS 3-4 (A) 3.4 03:09:46 89° NNW 03:09:46 89° NNW 03:16:15 10° NE
NOSS 3-4 (C) 3.4 03:09:52 89° NNE 03:09:52 89° NNE 03:16:22 10° NE
Cosmos 1656 Rocket 4.0 03:05:56 10° NNW 03:11:17 57° ENE 03:11:50 54° E
ATLAS 2AS CENTAUR R/B 4.5 03:07:36 20° WNW 03:11:23 29° NW 03:18:14 10° NNE
IRS-P3 4.2 03:11:16 10° NNE 03:16:02 71° N 03:16:02 71° N
NOSS 3-2 (A) 3.9 03:17:24 10° NW 03:24:55 67° WSW 03:26:14 59° SSW
UNK 4.4 03:27:09 50° E 03:27:23 50° ENE 03:31:49 10° N
Meteor 1-21 4.3 03:27:47 65° SE 03:28:12 67° E 03:33:45 10° NNE
Cosmos 2112 Rocket 4.0 03:30:38 81° N 03:30:38 81° N 03:35:40 10° NNE
Aureole 1 Rocket 3.6 03:34:07 60° NNW 03:34:07 60° NNW 03:37:56 10° NNE
Lacrosse 5 rocket 2.6 03:41:40 39° ESE 03:41:40 39° ESE 03:45:38 10° ENE
NPP 3.9 03:39:28 10° N 03:44:40 52° WNW 03:44:40 52° WNW
Cosmos 1624 Rocket 4.5 03:41:18 10° NNW 03:46:28 58° ENE 03:49:36 23° SE
Nadezhda 3 Rocket 3.9 03:46:00 62° SW 03:46:52 70° W 03:53:12 10° N
Cosmos 1544 4.3 03:45:01 10° N 03:47:32 40° N 03:47:32 40° N
Resurs 1-4 Rocket 2.1 03:43:28 10° NNE 03:48:45 74° ESE 03:49:36 61° SSE
USA 161 4.4 03:48:14 15° E 03:48:55 16° ENE 03:50:45 10° NNE
BREEZE M DEB (TANK) 4.5 03:34:40 10° WNW 03:48:56 42° WSW 03:48:56 42° WSW
Cosmos 1805 3.9 03:45:42 10° N 03:48:58 55° NNE 03:48:58 55° NNE
SL-08 R/B 4.5 03:51:21 31° NW 03:51:21 31° NW 03:54:13 10° NNW
Cosmos 1271 Rocket 3.5 03:46:02 10° N 03:49:22 47° ENE 03:49:22 47° ENE
Cosmos 1758 Rocket 4.2 03:51:05 46° ESE 03:51:36 49° E 03:55:48 10° NNE
ERS-1 4.3 03:46:37 10° NNE 03:51:37 89° W 03:51:57 78° SSW
Spot 4 Rocket 3.9 03:48:09 10° NNE 03:53:21 86° WNW 03:53:54 72° SSW
USA 32 4.2 03:54:34 46° SSE 03:56:00 68° E 04:01:14 10° N
CZ-2D R/B 2.0 03:53:55 10° NNE 03:59:15 89° ESE 04:00:15 60° SSW
Cosmos 921 Rocket 3.7 03:55:25 10° N 03:59:50 55° ENE 04:02:20 24° SE
Cosmos 2056 Rocket 3.7 03:54:33 10° NNW 03:59:55 71° ENE 04:03:28 21° SSE
RESURS DK-1 3.0 04:01:38 45° NW 04:01:38 45° NW 04:05:08 10° NNE
Cosmos 1842 4.0 04:03:37 43° NNW 04:03:37 43° NNW 04:06:31 10° N
Cosmos 1680 Rocket 4.2 04:03:31 38° WNW 04:03:49 38° WNW 04:08:44 10° N
ADEOS 3.5 04:05:40 10° N 04:10:52 71° WNW 04:11:59 54° SW
COSMOS 2455 2.9 04:05:29 10° NW 04:11:17 51° WSW 04:12:09 47° SW
Cosmos 1943 Rocket 4.2 04:08:19 10° NW 04:09:23 14° WNW 04:09:23 14° WNW
Cosmos 1953 Rocket 3.5 04:12:22 65° S 04:13:00 89° ESE 04:17:30 10° N
Cosmos 2082 Rocket 4.2 04:08:48 10° SSE 04:13:11 23° E 04:17:34 10° NE
SL-27 R/B 3.2 04:17:17 42° NW 04:17:17 42° NW 04:20:10 10° N
IRS-1D 3.7 04:12:34 10° N 04:17:42 59° WNW 04:18:54 47° WSW
COSMOS 2406 3.6 04:17:44 40° WSW 04:19:09 49° WNW 04:24:45 10° NNE
MOZ.5/SAFIR/RUBIN 5/SL-8 3.9 04:19:03 20° SSE 04:22:14 76° ENE 04:26:55 10° N
NOSS 2-2 (E) 3.4 04:24:13 59° WSW 04:24:55 75° NW 04:29:38 10° NNE
CZ-2D R/B 3.4 04:21:51 10° NNE 04:25:56 75° E 04:27:05 45° S
ARIANE 5 R/B 2.9 04:23:40 10° N 04:28:43 50° WNW 04:30:09 39° WSW
Cosmos 1707 3.4 04:27:49 29° SSE 04:29:31 53° E 04:33:18 10° NNE
COBE Rocket 4.1 04:26:08 10° N 04:31:06 57° WNW 04:32:34 40° SW
Cosmos 1821 Rocket 4.3 04:28:04 10° NNW 04:33:48 44° W 04:35:56 32° SW
Cosmos 1452 Rocket 4.0 04:29:43 10° NNW 04:34:56 60° ENE 04:40:06 10° SSE
Cosmos 1371 Rocket 4.4 04:30:30 10° NNW 04:35:32 42° WSW 04:36:49 36° SW
Cosmos 1825 Rocket 4.2 04:35:15 35° W 04:35:36 36° WNW 04:39:41 10° N
Cosmos 1470 2.6 04:33:11 10° N 04:37:07 90° SSW 04:39:05 28° S
SL-16 R/B 3.0 04:36:44 32° SW 04:38:21 37° W 04:44:00 10° NNW
Cosmos 1953 2.7 04:34:52 10° NNW 04:38:38 41° W 04:38:39 41° W
USA 267 3.4 04:36:17 10° SSE 04:42:28 45° SW 04:48:42 10° WNW
ADEOS Rocket 3.5 04:38:12 10° N 04:43:52 44° WNW 04:46:59 27° WSW
GEOS 3 Rocket 4.4 04:39:36 10° NNE 04:44:29 40° NW 04:47:02 24° W
COSMOS 2487 2.8 04:43:51 31° S 04:45:21 61° ESE 04:48:54 10° NNE
CENTAUR R/B 3.0 04:37:47 10° NW 04:45:43 73° WSW 04:54:06 10° SSE
Intercosmos 25 4.4 04:38:23 10° N 04:46:00 78° E 04:50:34 10° SSE
Cosmos 1378 3.6 04:46:12 19° S 04:48:42 60° E 04:52:24 10° NNE
Cosmos 1818 3.7 04:47:39 30° SW 04:50:20 65° NW 04:55:47 10° NNE
UNKNOWN OBJECT B 3.3 04:46:34 10° N 04:50:23 44° WNW 04:51:34 34° WSW
Okean O Rocket 2.8 04:46:20 10° NNE 04:50:32 41° E 04:54:41 10° S
Cosmos 1605 Rocket 4.0 04:48:25 10° NNW 04:54:29 57° W 05:00:19 11° SSW
ADEOS II 3.0 04:49:40 10° NNE 04:54:45 47° E 04:59:47 10° S
Cosmos 1339 Rocket 4.4 04:55:23 16° SSW 05:00:14 69° W 05:06:20 10° N
Meteor 1-24 Rocket 4.4 04:55:29 10° S 05:00:46 55° E 05:06:16 10° NNE
NOSS 2-2 (D) 4.2 04:59:14 26° W 05:01:04 40° NW 05:05:31 10° NNE
Tiangong 1 0.6 05:04:20 33° W 05:05:25 79° SSW 05:08:15 10° ESE
Cosmos 1269 Rocket 4.4 05:04:58 10° S 05:10:08 63° ESE 05:15:22 10° NNE
PSLV R/B 3.9 05:07:11 10° NNE 05:11:19 90° S 05:15:23 10° SSW
Cosmos 839 Rocket 4.3 05:06:39 10° NW 05:12:55 57° WSW 05:20:21 10° SSE
Cosmos 1733 4.1 05:11:24 10° NNW 05:14:43 29° W 05:16:22 21° SW
USA 161 3.1 05:18:52 19° W 05:18:52 19° W 05:20:50 10° NW
Lacrosse 5 rocket 2.6 05:17:23 16° W 05:20:36 35° NW 05:24:53 10° NNE
Cosmos 389 Rocket 3.6 05:18:10 10° NW 05:21:14 26° W 05:23:01 18° SW
CZ-4B DEB 4.5 05:16:00 10° NNE 05:21:30 72° ESE 05:26:57 10° S
Cosmos 2098 Rocket 3.5 05:20:03 10° NW 05:22:14 19° W 05:22:26 19° W
Cosmos 1000 Rocket 4.5 05:18:14 10° S 05:24:23 90° SSE 05:30:38 10° N
Delta 2 Rocket 3.8 05:22:47 20° SW 05:24:23 30° S 05:27:23 10° ESE
Cosmos 1697 Rocket 3.1 05:19:34 10° NNW 05:25:10 66° ENE 05:30:44 10° SSE
MOS 1 Rocket 3.9 05:21:41 10° N 05:25:36 34° WNW 05:28:54 14° SW
Cosmos 2100 Rocket 3.9 05:19:32 10° N 05:25:45 77° W 05:31:52 10° S
Cosmos 1842 Rocket 3.6 05:23:26 10° NNW 05:27:48 62° W 05:32:09 10° S
Resurs 1-4 Rocket 3.9 05:25:03 10° NNW 05:27:57 15° WNW 05:30:41 10° W
Cosmos-2242 4.1 05:25:12 10° NNW 05:28:49 26° W 05:32:08 11° SW
CZ-4B R/B 3.1 05:24:54 10° N 05:29:12 73° WNW 05:33:39 10° SSW
Cosmos 2278 3.8 05:23:59 10° NNW 05:29:34 55° WSW 05:35:06 10° S
Cosmos 2173 Rocket 4.0 05:26:39 10° N 05:32:56 74° W 05:39:06 10° S
EO 1 Del DPAF 3.3 05:30:43 10° SSE 05:34:34 85° ENE 05:38:27 10° NNW
MTI 3.9 05:31:44 10° SSE 05:34:58 81° ENE 05:38:13 10° N
PSLV R/B 3.5 05:31:07 10° N 05:35:31 82° WNW 05:39:51 10° SSW
Cosmos 2369 3.9 05:31:33 10° NW 05:37:04 49° WSW 05:42:33 10° S
CZ-2D R/B 4.1 05:36:24 10° NW 05:38:30 12° WNW 05:40:36 10° W
Meteor 2-5 Rocket 4.3 05:35:36 10° SW 05:40:55 40° WNW 05:46:24 10° N
Cosmos 2221 2.5 05:44:12 10° N 05:48:31 87° E 05:52:46 10° S
Cosmos 2061 Rocket 4.1 05:44:26 10° NNW 05:50:32 58° W 05:56:34 10° S
Cosmos 1674 3.8 05:47:44 10° SSE 05:51:22 48° E 05:55:03 10° NNE
Cosmos 2082 Rocket 2.6 05:51:21 10° SW 05:56:53 50° WNW 06:02:26 10° NNE
Cosmos 1833 Rocket 3.0 05:52:29 10° SW 05:57:56 53° WNW 06:03:26 10° NNE
Cosmos 1980 Rocket 2.5 05:53:11 10° NNW 05:58:54 74° ENE 06:04:32 10° SSE
Meteor 2-1 Rocket 4.4 05:55:09 10° NNW 06:00:39 55° W 06:06:14 10° S
Cosmos 158 Rocket 4.3 05:56:44 10° SW 06:01:33 49° WNW 06:06:33 10° N
Cosmos 1656 4.0 05:56:55 10° NW 06:02:00 42° WSW 06:07:04 10° S
